Home   Weather   Singapore   Past weeks
Flag for Singapore

Past Weather in Singapore, Singapore — Yesterday and Last 2 Weeks

Now
82 °F

Partly sunny.


Feels Like: 92 °F
Forecast: 89 / 79 °F
Wind: 1 mph from East

Location: Singapore / Paya Lebar

Current Time: Jul 21, 2019 at 8:31:19 am

Latest Report: Jul 21, 2019 at 8:00 am


Visibility: N/A

Pressure: 29.77 "Hg

Humidity: 89%

Dew Point: 79 °F

Location of SingaporeLocation

Past Weather in Singapore — Graph

°F

Singapore Temperature Yesterday

Maximum temperature yesterday: 91 °F (at 3:00 pm)
Minimum temperature yesterday: 82 °F (at 3:00 am)
Average temperature yesterday: 86 °F

High & Low Weather Summary for the Past Weeks

 TemperatureHumidityPressure
High91 °F (Jul 6, 1:00 pm)94% (Jul 9, 7:00 am)29.92 "Hg (Jul 9, 7:00 am)
Low75 °F (Jul 15, 8:45 am)52% (Jul 11, 3:00 pm)29.68 "Hg (Jul 18, 5:00 pm)
Average85 °F74%29.81 "Hg
* Reported Jul 6 7:00 am — Jul 21 7:00 am, Singapore. Weather by CustomWeather, © 2019

Note: Actual official high and low records may vary slightly from our data, if they occured in-between our weather recording intervals... More about our weather records

Advertising

Singapore Weather History for the Previous 24 Hours

Scroll right to see more
 ConditionsComfort  
Time TempWeatherWind HumidityBarometerVisibility
7:00 am
Sun, Jul 21
82 °FPassing clouds.3 mph84%29.77 "HgN/A
6:00 am82 °FPassing clouds.No wind84%29.74 "HgN/A
5:00 am82 °FPassing clouds.2 mph84%29.74 "HgN/A
4:00 am82 °FPassing clouds.2 mph84%29.74 "HgN/A
3:00 am82 °FPassing clouds.2 mph84%29.77 "HgN/A
2:00 am82 °FPassing clouds.2 mph84%29.80 "HgN/A
1:00 am84 °FPassing clouds.2 mph79%29.80 "HgN/A
12:00 am84 °FPassing clouds.5 mph79%29.80 "HgN/A
11:00 pm
Sat, Jul 20
84 °FPassing clouds.5 mph79%29.80 "HgN/A
10:00 pm86 °FPassing clouds.6 mph75%29.77 "HgN/A
9:00 pm86 °FPassing clouds.5 mph66%29.77 "HgN/A
8:00 pm88 °FPassing clouds.5 mph62%29.74 "HgN/A
7:00 pm88 °FPartly sunny.5 mph66%29.71 "HgN/A
6:00 pm90 °FPartly sunny.6 mph63%29.71 "HgN/A
5:00 pm90 °FPartly sunny.7 mph55%29.71 "HgN/A
4:00 pm90 °FPartly sunny.8 mph63%29.71 "HgN/A
3:00 pm91 °FPartly sunny.7 mph56%29.74 "HgN/A
2:00 pm90 °FPartly sunny.7 mph59%29.77 "HgN/A
1:00 pm90 °FPartly sunny.7 mph59%29.77 "HgN/A
12:00 pm90 °FBroken clouds.7 mph67%29.80 "HgN/A
11:00 am88 °FPartly sunny.9 mph66%29.80 "HgN/A
10:00 am86 °FPartly sunny.9 mph75%29.83 "HgN/A
9:00 am84 °FPartly sunny.7 mph79%29.80 "HgN/A
8:00 am84 °FPartly sunny.5 mph79%29.80 "HgN/A
Weather by CustomWeather, © 2019

See weather overview